Location: Gniazdowice
(50.2124°N, 20.2673°E)
Time: 21:32:28
(UTC+00:00)

Cosmos 2333 - Pass Details

Date: 23 May 2024
Orbit: 828 x 866 km, 70.9° (Epoch: 22 June)

Event Time Altitude Azimuth Distance (km) Brightness Sun altitude
Rises 01:43:13 0° 327° (NNW) 3,426 7.6 -8.0°
Reaches altitude 10° 01:45:43 10° 323° (NW) 2,491 6.8 -7.7°
Maximum altitude 01:51:15 53° 249° (WSW) 1,047 4.4 -7.1°
Drops below altitude 10° 01:56:49 10° 173° (S) 2,495 6.3 -6.4°
Sets 01:59:19 0° 169° (S) 3,431 7.0 -6.1°
